Regional Weather Roundup
Issued by NWS Northern Indiana

Home | Current Version | Previous Version | Text Only | Print | Product List | Glossary Off
Versions: 1 2 3 4 5 6 7 8 9 10 11 12 13 14 15 16 17 18 19 20 21 22 23 24 25 26 27 28 29 30 31 32 33 34 35 36 37 38 39 40 41 42 43 44 45 46 47 48 49 50

000
ASUS43 KIWX 261700
RWRIWX

KIWX WEATHER ROUNDUP
NATIONAL WEATHER SERVICE NORTHERN INDIANA
100 PM EDT THU APR 26 2018

NOTE: "FAIR" INDICATES FEW OR NO CLOUDS BELOW 12,000 FEET WITH NO
SIGNIFICANT WEATHER AND/OR OBSTRUCTIONS TO VISIBILITY.

* THESE STATIONS ARE NOT UNDER NWS QUALITY CONTROL. THEY ALSO MAY NOT
  REPORT WEATHER SUCH AS PRECIPITATION OR FOG.

INZ001>027-261800-
NORTHERN INDIANA

CITY           SKY/WX    TMP DP  RH WIND       PRES   REMARKS
GARY*          MOSUNNY   55  28  35 NE6       29.98S
KNOX*          FAIR      55  36  47 CALM      29.96S
SOUTH BEND     FAIR      56  31  38 S6        29.97S
ELKHART*       FAIR      59  36  41 CALM      29.95F
GOSHEN         FAIR      56  40  55 SW3       29.95F
MONTICELLO*    FAIR      56  34  43 CALM      29.95F
ROCHESTER*     FAIR      59  39  47 S6        29.95F
WARSAW*        FAIR      54  37  54 E5        29.95S
FORT WAYNE     FAIR      59  42  53 NE6       29.95F

$$
INZ028>050-261800-
CENTRAL INDIANA

CITY           SKY/WX    TMP DP  RH WIND       PRES   REMARKS
LAFAYETTE      FAIR      56  37  49 MISG      29.95F
KOKOMO*        FAIR      57  40  52 NW5       29.95F
MUNCIE*        FAIR      58  41  53 CALM      29.93F
INDIANAPOLIS   FAIR      58  31  35 NE8       29.93F

$$
MIZ043>046-050>051-056>058-064>065-071>073-077>080-261800-
SOUTHWEST LOWER MICHIGAN

CITY           SKY/WX    TMP DP  RH WIND       PRES   REMARKS
BATTLE CREEK   FAIR      56  29  35 VRB5      29.94F
BENTON HARBOR  FAIR      53  34  48 W8        29.96S
COLDWATER*     FAIR      55  36  49 CALM      29.95S
HILLSDALE*     FAIR      54  34  47 CALM      29.93F
HOLLAND        FAIR      55  33  43 VRB6      29.95F
GRAND RAPIDS   PTSUNNY   57  28  33 VRB3      29.93F
KALAMAZOO      FAIR      57  27  31 SW7       29.94F
THREE RIVERS*  FAIR      58  33  39 E7        29.95S

$$
OHZ001>008-015>018-024>025-261800-
NORTHWEST OHIO

CITY           SKY/WX    TMP DP  RH WIND       PRES   REMARKS
WAUSEON*       FAIR      55  39  54 S7        29.96S
DEFIANCE       FAIR      56  39  53 NW6       29.95F
FINDLAY        FAIR      56  40  55 CALM      29.94F
TOLEDO EXPRESS FAIR      55  39  54 NW6       29.94F
TOLEDO METCALF FAIR      54  38  54 SW7       29.96F
LIMA           FAIR      57  44  62 SE6       29.94F

$$
AND FOR LAKE MICHIGAN COASTAL AND OPEN LAKE BUOY OBSERVATIONS

STATION/POSITION TEMP    WIND        PRES    VSBY  WAVE
                 AIR SEA DIR/SP/G                  HT/PER
                 (F)     (DEG/KT/KT) (MB)    (MI)  (FT/S)
CALUMET HARBOR    43      50/  5/  5 1014.7S
MICHIGAN CITY     44     330/  5/  6   N/A
BURNS HARBOR      41     360/  4/  5 1015.6F
SAINT JOSEPH      43     360/  5/  6 1015.6
4 MI NW BRIDGMAN  42 43  350/  4/  6 1015.7F         1/ 5

$$
&&



USA.gov is the U.S. government's official web portal to all federal, state and local government web resources and services.